29.03.2024;12:47;12,362;
29.03.2024;12:32;12,362;
29.03.2024;12:17;12,361;
29.03.2024;12:02;12,362;
29.03.2024;11:47;12,360;
29.03.2024;11:32;12,360;
29.03.2024;11:17;12,363;
29.03.2024;11:02;12,361;
29.03.2024;10:47;12,367;
29.03.2024;10:32;12,361;
29.03.2024;10:17;12,356;
29.03.2024;10:02;12,349;
29.03.2024;09:47;12,362;
29.03.2024;09:32;12,367;
29.03.2024;09:17;12,364;
29.03.2024;09:02;12,367;
29.03.2024;08:47;12,367;
29.03.2024;08:32;12,368;
29.03.2024;08:17;12,367;
29.03.2024;08:02;12,367;
29.03.2024;07:47;12,371;
29.03.2024;07:32;12,367;
29.03.2024;07:17;12,370;
29.03.2024;07:02;12,366;
29.03.2024;06:47;12,362;
29.03.2024;06:32;12,366;
29.03.2024;06:17;12,368;
29.03.2024;06:02;12,366;
29.03.2024;05:47;12,360;
29.03.2024;05:32;12,369;
29.03.2024;05:17;12,368;
29.03.2024;05:02;12,363;
29.03.2024;04:47;12,370;
29.03.2024;04:32;12,369;
29.03.2024;04:17;12,372;
29.03.2024;04:02;12,368;
29.03.2024;03:47;12,368;
29.03.2024;03:32;12,372;
29.03.2024;03:17;12,373;
29.03.2024;03:02;12,369;
29.03.2024;02:47;12,368;
29.03.2024;02:32;12,370;
29.03.2024;02:17;12,368;
29.03.2024;02:02;12,368;
29.03.2024;01:47;12,356;
29.03.2024;01:32;12,365;
29.03.2024;01:17;12,358;
29.03.2024;01:02;12,357;
29.03.2024;00:47;12,362;
29.03.2024;00:32;12,361;
29.03.2024;00:17;12,364;
29.03.2024;00:02;12,366;
28.03.2024;23:47;12,366;
28.03.2024;23:32;12,372;
28.03.2024;23:17;12,375;
28.03.2024;23:02;12,378;
28.03.2024;22:47;12,378;
28.03.2024;22:32;12,377;
28.03.2024;22:17;12,380;
28.03.2024;22:02;12,383;
28.03.2024;21:47;12,386;
28.03.2024;21:32;12,385;
28.03.2024;21:17;12,387;
28.03.2024;21:02;12,387;
28.03.2024;20:47;12,385;
28.03.2024;20:32;12,391;
28.03.2024;20:17;12,390;
28.03.2024;20:02;12,394;
28.03.2024;19:47;12,392;
28.03.2024;19:32;12,393;
28.03.2024;19:17;12,396;
28.03.2024;19:02;12,392;
28.03.2024;18:47;12,390;
28.03.2024;18:32;12,388;
28.03.2024;18:17;12,389;
28.03.2024;18:02;12,391;
28.03.2024;17:47;12,392;
28.03.2024;17:32;12,390;
28.03.2024;17:17;12,384;
28.03.2024;17:02;12,390;
28.03.2024;16:47;12,391;
28.03.2024;16:32;12,392;
28.03.2024;16:17;12,391;
28.03.2024;16:02;12,391;
28.03.2024;15:47;12,391;
28.03.2024;15:32;12,391;
28.03.2024;15:17;12,391;
28.03.2024;15:02;12,392;
28.03.2024;14:47;12,390;
28.03.2024;14:32;12,398;
28.03.2024;14:17;12,385;
28.03.2024;14:02;12,389;
28.03.2024;13:47;12,387;
28.03.2024;13:32;12,388;
28.03.2024;13:17;12,388;
28.03.2024;13:02;12,388;
28.03.2024;12:47;12,387;
28.03.2024;12:32;12,385;
28.03.2024;12:17;12,383;
28.03.2024;12:02;12,381;
28.03.2024;11:47;12,373;
28.03.2024;11:32;12,375;
28.03.2024;11:17;12,388;
28.03.2024;11:02;12,388;
28.03.2024;10:47;12,388;
28.03.2024;10:32;12,388;
28.03.2024;10:17;12,386;
28.03.2024;10:02;12,388;
28.03.2024;09:47;12,383;
28.03.2024;09:32;12,387;
28.03.2024;09:17;12,386;
28.03.2024;09:02;12,389;
28.03.2024;08:47;12,388;
28.03.2024;08:32;12,384;
28.03.2024;08:17;12,382;
28.03.2024;08:02;12,389;
28.03.2024;07:47;12,384;
28.03.2024;07:32;12,385;
28.03.2024;07:17;12,388;
28.03.2024;07:02;12,385;
28.03.2024;06:47;12,386;
28.03.2024;06:32;12,388;
28.03.2024;06:17;12,389;
28.03.2024;06:02;12,389;
28.03.2024;05:47;12,387;
28.03.2024;05:32;12,388;
28.03.2024;05:17;12,389;
28.03.2024;05:02;12,388;
28.03.2024;04:47;12,387;
28.03.2024;04:32;12,387;
28.03.2024;04:17;12,390;
28.03.2024;04:02;12,389;
28.03.2024;03:47;12,390;
28.03.2024;03:32;12,391;
28.03.2024;03:17;12,391;
28.03.2024;03:02;12,389;
28.03.2024;02:47;12,391;
28.03.2024;02:32;12,386;
28.03.2024;02:17;12,387;
28.03.2024;02:02;12,394;
28.03.2024;01:47;12,391;
28.03.2024;01:32;12,391;
28.03.2024;01:17;12,393;
28.03.2024;01:02;12,392;
28.03.2024;00:47;12,394;
28.03.2024;00:32;12,393;
28.03.2024;00:17;12,390;
28.03.2024;00:02;12,395;
27.03.2024;23:47;12,394;
27.03.2024;23:32;12,392;
27.03.2024;23:17;12,394;
27.03.2024;23:02;12,396;
27.03.2024;22:47;12,396;
27.03.2024;22:32;12,396;
27.03.2024;22:17;12,392;
27.03.2024;22:02;12,394;
27.03.2024;21:47;12,388;
27.03.2024;21:32;12,383;
27.03.2024;21:17;12,386;
27.03.2024;21:02;12,381;
27.03.2024;20:47;12,385;
27.03.2024;20:32;12,384;
27.03.2024;20:17;12,384;
27.03.2024;20:02;12,384;
27.03.2024;19:47;12,388;
27.03.2024;19:32;12,389;
27.03.2024;19:17;12,387;
27.03.2024;19:02;12,387;
27.03.2024;18:47;12,386;
27.03.2024;18:32;12,387;
27.03.2024;18:17;12,392;
27.03.2024;18:02;12,391;
27.03.2024;17:47;12,391;
27.03.2024;17:32;12,389;
27.03.2024;17:17;12,388;
27.03.2024;17:02;12,391;
27.03.2024;16:47;12,386;
27.03.2024;16:32;12,388;
27.03.2024;16:17;12,391;
27.03.2024;16:02;12,391;
27.03.2024;15:47;12,392;
27.03.2024;15:32;12,392;
27.03.2024;15:17;12,391;
27.03.2024;15:02;12,393;
27.03.2024;14:47;12,391;
27.03.2024;14:32;12,390;
27.03.2024;14:17;12,390;
27.03.2024;14:02;12,393;
27.03.2024;13:47;12,392;
27.03.2024;13:32;12,391;
27.03.2024;13:17;12,390;
27.03.2024;13:02;12,392;
27.03.2024;12:47;12,393;
27.03.2024;12:32;12,391;
27.03.2024;12:17;12,391;
27.03.2024;12:02;12,390;
27.03.2024;11:47;12,391;
27.03.2024;11:32;12,387;
27.03.2024;11:17;12,390;
27.03.2024;11:02;12,384;
27.03.2024;10:47;12,385;
27.03.2024;10:32;12,386;
27.03.2024;10:17;12,390;
27.03.2024;10:02;12,388;
27.03.2024;09:47;12,391;
27.03.2024;09:32;12,391;
27.03.2024;09:17;12,389;
27.03.2024;09:02;12,391;
27.03.2024;08:47;12,390;
27.03.2024;08:32;12,391;
27.03.2024;08:17;12,391;
27.03.2024;08:02;12,390;
27.03.2024;07:47;12,392;
27.03.2024;07:32;12,391;
27.03.2024;07:17;12,390;
27.03.2024;07:02;12,390;
27.03.2024;06:47;12,388;
27.03.2024;06:32;12,392;
27.03.2024;06:17;12,389;
27.03.2024;06:02;12,390;
27.03.2024;05:48;12,391;
27.03.2024;05:33;12,390;
27.03.2024;05:18;12,391;
27.03.2024;05:03;12,389;
27.03.2024;04:48;12,391;
27.03.2024;04:33;12,390;
27.03.2024;04:18;12,392;
27.03.2024;04:03;12,392;
27.03.2024;03:48;12,392;
27.03.2024;03:33;12,391;
27.03.2024;03:18;12,391;
27.03.2024;03:03;12,393;
27.03.2024;02:48;12,389;
27.03.2024;02:33;12,391;
27.03.2024;02:18;12,393;
27.03.2024;02:03;12,391;
27.03.2024;01:48;12,391;
27.03.2024;01:33;12,391;
27.03.2024;01:18;12,393;
27.03.2024;01:03;12,393;
27.03.2024;00:48;12,390;
27.03.2024;00:33;12,390;
27.03.2024;00:18;12,392;
27.03.2024;00:03;12,393;
26.03.2024;23:48;12,393;
26.03.2024;23:33;12,393;
26.03.2024;23:18;12,395;
26.03.2024;23:03;12,391;
26.03.2024;22:48;12,394;
26.03.2024;22:33;12,394;
26.03.2024;22:18;12,394;
26.03.2024;22:03;12,393;
26.03.2024;21:48;12,394;
26.03.2024;21:33;12,392;
26.03.2024;21:18;12,391;
26.03.2024;21:03;12,394;
26.03.2024;20:48;12,393;
26.03.2024;20:33;12,395;
26.03.2024;20:18;12,393;
26.03.2024;20:03;12,392;
26.03.2024;19:48;12,392;
26.03.2024;19:33;12,393;
26.03.2024;19:18;12,396;
26.03.2024;19:03;12,392;
26.03.2024;18:48;12,392;
26.03.2024;18:33;12,393;
26.03.2024;18:18;12,398;
26.03.2024;18:03;12,394;
26.03.2024;17:48;12,398;
26.03.2024;17:33;12,393;
26.03.2024;17:18;12,398;
26.03.2024;17:03;12,396;
26.03.2024;16:48;12,396;
26.03.2024;16:33;12,395;
26.03.2024;16:18;12,397;
26.03.2024;16:03;12,397;
26.03.2024;15:48;12,392;
26.03.2024;15:33;12,396;
26.03.2024;15:18;12,396;
26.03.2024;15:03;12,396;
26.03.2024;14:48;12,396;
26.03.2024;14:33;12,399;
26.03.2024;14:18;12,399;
26.03.2024;14:03;12,398;
26.03.2024;13:48;12,399;
26.03.2024;13:33;12,397;
26.03.2024;13:18;12,396;
26.03.2024;13:03;12,398;
26.03.2024;12:48;12,399;
26.03.2024;12:18;12,401;
26.03.2024;12:03;12,401;
26.03.2024;11:48;12,402;
26.03.2024;11:33;12,404;
26.03.2024;11:18;12,404;
26.03.2024;11:03;12,399;
26.03.2024;10:48;12,393;
26.03.2024;10:33;12,394;
26.03.2024;10:18;12,395;
26.03.2024;10:03;12,396;
26.03.2024;09:48;12,395;
26.03.2024;09:33;12,395;
26.03.2024;09:18;12,396;
26.03.2024;09:03;12,396;
26.03.2024;08:48;12,392;
26.03.2024;08:33;12,387;
26.03.2024;08:18;12,391;
26.03.2024;08:03;12,391;
26.03.2024;07:48;12,389;
26.03.2024;07:33;12,390;
26.03.2024;07:18;12,396;
26.03.2024;07:03;12,396;
26.03.2024;06:48;12,395;
26.03.2024;06:33;12,393;
26.03.2024;06:18;12,390;
26.03.2024;06:03;12,391;
26.03.2024;05:48;12,389;
26.03.2024;05:33;12,390;
26.03.2024;05:18;12,389;
26.03.2024;05:03;12,389;
26.03.2024;04:48;12,391;
26.03.2024;04:33;12,391;
26.03.2024;04:18;12,389;
26.03.2024;04:03;12,387;
26.03.2024;03:48;12,391;
26.03.2024;03:33;12,392;
26.03.2024;03:18;12,387;
26.03.2024;03:03;12,390;
26.03.2024;02:48;12,389;
26.03.2024;02:33;12,391;
26.03.2024;02:18;12,388;
26.03.2024;02:03;12,389;
26.03.2024;01:48;12,388;
26.03.2024;01:33;12,388;
26.03.2024;01:18;12,392;
26.03.2024;01:03;12,385;
26.03.2024;00:48;12,384;
26.03.2024;00:33;12,384;
26.03.2024;00:18;12,384;
26.03.2024;00:03;12,381;
25.03.2024;23:48;12,381;
25.03.2024;23:33;12,379;
25.03.2024;23:18;12,378;
25.03.2024;23:03;12,377;
25.03.2024;22:48;12,378;
25.03.2024;22:33;12,377;
25.03.2024;22:18;12,376;
25.03.2024;22:03;12,379;
25.03.2024;21:48;12,379;
25.03.2024;21:33;12,377;
25.03.2024;21:18;12,377;
25.03.2024;21:03;12,376;
25.03.2024;20:48;12,375;
25.03.2024;20:33;12,375;
25.03.2024;20:18;12,376;
25.03.2024;20:03;12,376;
25.03.2024;19:48;12,372;
25.03.2024;19:33;12,370;
25.03.2024;19:18;12,371;
25.03.2024;19:03;12,371;
25.03.2024;18:48;12,371;
25.03.2024;18:33;12,367;
25.03.2024;18:18;12,372;
25.03.2024;18:03;12,369;
25.03.2024;17:48;12,371;
25.03.2024;17:33;12,371;
25.03.2024;17:18;12,370;
25.03.2024;17:03;12,373;
25.03.2024;16:48;12,371;
25.03.2024;16:33;12,373;
25.03.2024;16:18;12,370;
25.03.2024;16:03;12,372;
25.03.2024;15:48;12,373;
25.03.2024;15:33;12,370;
25.03.2024;15:18;12,371;
25.03.2024;15:03;12,371;
25.03.2024;14:48;12,372;
25.03.2024;14:33;12,370;
25.03.2024;14:18;12,373;
25.03.2024;14:03;12,375;
25.03.2024;13:48;12,373;
25.03.2024;13:33;12,371;
25.03.2024;13:18;12,372;
25.03.2024;13:03;12,368;
25.03.2024;12:48;12,372;
25.03.2024;12:33;12,375;
25.03.2024;12:18;12,373;
25.03.2024;12:03;12,372;
25.03.2024;11:48;12,371;
25.03.2024;11:33;12,371;
25.03.2024;11:18;12,372;
25.03.2024;11:03;12,375;
25.03.2024;10:48;12,374;
25.03.2024;10:33;12,368;
25.03.2024;10:18;12,371;
25.03.2024;10:03;12,371;
25.03.2024;09:48;12,370;
25.03.2024;09:33;12,373;
25.03.2024;09:18;12,372;
25.03.2024;09:03;12,371;
25.03.2024;08:48;12,374;
25.03.2024;08:33;12,376;
25.03.2024;08:18;12,373;
25.03.2024;08:03;12,376;
25.03.2024;07:48;12,374;
25.03.2024;07:33;12,372;
25.03.2024;07:18;12,374;
25.03.2024;07:03;12,376;
25.03.2024;06:48;12,371;
25.03.2024;06:33;12,371;
25.03.2024;06:18;12,371;
25.03.2024;06:03;12,373;
25.03.2024;05:48;12,372;
25.03.2024;05:33;12,374;
25.03.2024;05:18;12,374;
25.03.2024;05:03;12,376;
25.03.2024;04:48;12,378;
25.03.2024;04:33;12,375;
25.03.2024;04:18;12,375;
25.03.2024;04:03;12,371;
25.03.2024;03:48;12,376;
25.03.2024;03:33;12,375;
25.03.2024;03:18;12,374;
25.03.2024;03:03;12,370;
25.03.2024;02:48;12,374;
25.03.2024;02:33;12,377;
25.03.2024;02:18;12,375;
25.03.2024;02:03;12,376;
25.03.2024;01:48;12,377;
25.03.2024;01:33;12,377;
25.03.2024;01:18;12,377;
25.03.2024;01:03;12,378;
25.03.2024;00:48;12,376;
25.03.2024;00:33;12,375;
25.03.2024;00:18;12,375;
25.03.2024;00:03;12,378;
24.03.2024;23:48;12,376;
24.03.2024;23:33;12,379;
24.03.2024;23:18;12,379;
24.03.2024;23:03;12,376;
24.03.2024;22:48;12,373;
24.03.2024;22:33;12,379;
24.03.2024;22:18;12,376;
24.03.2024;22:03;12,376;
24.03.2024;21:48;12,373;
24.03.2024;21:33;12,379;
24.03.2024;21:18;12,379;
24.03.2024;21:03;12,378;
24.03.2024;20:48;12,375;
24.03.2024;20:33;12,381;
24.03.2024;20:18;12,379;
24.03.2024;20:03;12,379;
24.03.2024;19:48;12,380;
24.03.2024;19:33;12,380;
24.03.2024;19:18;12,374;
24.03.2024;19:03;12,380;
24.03.2024;18:48;12,380;
24.03.2024;18:33;12,378;
24.03.2024;18:18;12,379;
24.03.2024;18:03;12,380;
24.03.2024;17:48;12,384;
24.03.2024;17:33;12,380;
24.03.2024;17:18;12,384;
24.03.2024;17:03;12,380;
24.03.2024;16:48;12,384;
24.03.2024;16:33;12,385;
24.03.2024;16:18;12,384;
24.03.2024;16:03;12,383;
24.03.2024;15:48;12,382;
24.03.2024;15:33;12,384;
24.03.2024;15:18;12,380;
24.03.2024;15:03;12,380;
24.03.2024;14:48;12,381;
24.03.2024;14:33;12,381;
24.03.2024;14:18;12,383;
24.03.2024;14:03;12,381;
24.03.2024;13:48;12,384;
24.03.2024;13:33;12,383;
24.03.2024;13:18;12,382;
24.03.2024;13:03;12,382;
24.03.2024;12:48;12,381;
24.03.2024;12:33;12,385;
24.03.2024;12:18;12,388;
24.03.2024;12:03;12,387;
24.03.2024;11:48;12,387;
24.03.2024;11:33;12,383;
24.03.2024;11:18;12,386;
24.03.2024;11:03;12,387;
24.03.2024;10:48;12,386;
24.03.2024;10:33;12,386;
24.03.2024;10:18;12,385;
24.03.2024;10:03;12,386;
24.03.2024;09:48;12,387;
24.03.2024;09:33;12,383;
24.03.2024;09:18;12,384;
24.03.2024;09:03;12,388;
24.03.2024;08:48;12,388;
24.03.2024;08:33;12,384;
24.03.2024;08:18;12,385;
24.03.2024;08:03;12,380;
24.03.2024;07:48;12,387;
24.03.2024;07:33;12,384;
24.03.2024;07:18;12,386;
24.03.2024;07:03;12,386;
24.03.2024;06:48;12,384;
24.03.2024;06:33;12,383;
24.03.2024;06:18;12,382;
24.03.2024;06:03;12,381;
24.03.2024;05:48;12,383;
24.03.2024;05:33;12,386;
24.03.2024;05:18;12,383;
24.03.2024;05:03;12,383;
24.03.2024;04:48;12,381;
24.03.2024;04:33;12,384;
24.03.2024;04:18;12,384;
24.03.2024;04:03;12,380;
24.03.2024;03:48;12,381;
24.03.2024;03:33;12,383;
24.03.2024;03:18;12,386;
24.03.2024;03:03;12,385;
24.03.2024;02:48;12,383;
24.03.2024;02:33;12,384;
24.03.2024;02:18;12,383;
24.03.2024;02:03;12,385;
24.03.2024;01:48;12,385;
24.03.2024;01:33;12,384;
24.03.2024;01:18;12,384;
24.03.2024;01:03;12,386;
24.03.2024;00:48;12,384;
24.03.2024;00:33;12,386;
24.03.2024;00:18;12,387;
24.03.2024;00:03;12,387;
23.03.2024;23:48;12,385;
23.03.2024;23:33;12,383;
23.03.2024;23:19;12,386;
23.03.2024;23:04;12,386;
23.03.2024;22:49;12,384;
23.03.2024;22:34;12,384;
23.03.2024;22:19;12,386;
23.03.2024;22:04;12,380;
23.03.2024;21:49;12,381;
23.03.2024;21:34;12,382;
23.03.2024;21:19;12,385;
23.03.2024;21:04;12,383;
23.03.2024;20:49;12,386;
23.03.2024;20:34;12,386;
23.03.2024;20:19;12,390;
23.03.2024;20:04;12,390;
23.03.2024;19:49;12,388;
23.03.2024;19:34;12,388;
23.03.2024;19:19;12,384;
23.03.2024;19:04;12,384;
23.03.2024;18:49;12,384;
23.03.2024;18:34;12,386;
23.03.2024;18:19;12,386;
23.03.2024;18:04;12,386;
23.03.2024;17:49;12,387;
23.03.2024;17:34;12,387;
23.03.2024;17:19;12,385;
23.03.2024;17:04;12,388;
23.03.2024;16:49;12,383;
23.03.2024;16:34;12,385;
23.03.2024;16:19;12,385;
23.03.2024;16:04;12,386;
23.03.2024;15:49;12,386;
23.03.2024;15:34;12,386;
23.03.2024;15:19;12,386;
23.03.2024;15:04;12,387;
23.03.2024;14:49;12,390;
23.03.2024;14:34;12,388;
23.03.2024;14:19;12,389;
23.03.2024;14:04;12,386;
23.03.2024;13:49;12,386;
23.03.2024;13:34;12,389;
23.03.2024;13:19;12,388;
23.03.2024;13:04;12,385;
23.03.2024;12:49;12,387;
23.03.2024;12:34;12,388;
23.03.2024;12:19;12,388;
23.03.2024;12:04;12,387;
23.03.2024;11:49;12,389;
23.03.2024;11:34;12,387;
23.03.2024;11:19;12,385;
23.03.2024;11:04;12,391;
23.03.2024;10:49;12,390;
23.03.2024;10:34;12,390;
23.03.2024;10:19;12,388;
23.03.2024;10:04;12,391;
23.03.2024;09:49;12,389;
23.03.2024;09:34;12,391;
23.03.2024;09:19;12,391;
23.03.2024;09:04;12,393;
23.03.2024;08:49;12,394;
23.03.2024;08:34;12,395;
23.03.2024;08:19;12,395;
23.03.2024;08:04;12,396;
23.03.2024;07:49;12,393;
23.03.2024;07:34;12,392;
23.03.2024;07:19;12,391;
23.03.2024;07:04;12,388;
23.03.2024;06:49;12,390;
23.03.2024;06:34;12,391;
23.03.2024;06:19;12,390;
23.03.2024;06:04;12,391;
23.03.2024;05:49;12,387;
23.03.2024;05:34;12,388;
23.03.2024;05:19;12,392;
23.03.2024;05:04;12,394;
23.03.2024;04:49;12,392;
23.03.2024;04:34;12,393;
23.03.2024;04:19;12,391;
23.03.2024;04:04;12,391;
23.03.2024;03:49;12,390;
23.03.2024;03:34;12,391;
23.03.2024;03:19;12,389;
23.03.2024;03:04;12,389;
23.03.2024;02:49;12,390;
23.03.2024;02:34;12,391;
23.03.2024;02:19;12,390;
23.03.2024;02:04;12,390;
23.03.2024;01:49;12,390;
23.03.2024;01:34;12,389;
23.03.2024;01:19;12,390;
23.03.2024;01:04;12,392;
23.03.2024;00:49;12,392;
23.03.2024;00:34;12,389;
23.03.2024;00:19;12,391;
23.03.2024;00:04;12,386;
22.03.2024;23:49;12,391;
22.03.2024;23:34;12,405;
22.03.2024;23:19;12,387;
22.03.2024;23:04;12,386;
22.03.2024;22:49;12,389;
22.03.2024;22:34;12,387;
22.03.2024;22:19;12,388;
22.03.2024;22:04;12,386;
22.03.2024;21:49;12,392;
22.03.2024;21:34;12,394;
22.03.2024;21:19;12,392;
22.03.2024;21:04;12,392;
22.03.2024;20:49;12,392;
22.03.2024;20:34;12,393;
22.03.2024;20:19;12,391;
22.03.2024;20:04;12,386;
22.03.2024;19:49;12,386;
22.03.2024;19:34;12,390;
22.03.2024;19:19;12,391;
22.03.2024;19:04;12,389;
22.03.2024;18:49;12,393;
22.03.2024;18:34;12,389;
22.03.2024;18:19;12,396;
22.03.2024;18:04;12,396;
22.03.2024;17:49;12,393;
22.03.2024;17:34;12,390;
22.03.2024;17:19;12,386;
22.03.2024;17:04;12,389;
22.03.2024;16:49;12,389;
22.03.2024;16:34;12,391;
22.03.2024;16:19;12,394;
22.03.2024;16:04;12,394;
22.03.2024;15:49;12,391;
22.03.2024;15:34;12,396;
22.03.2024;15:19;12,396;
22.03.2024;15:04;12,390;
22.03.2024;14:49;12,391;
22.03.2024;14:34;12,389;
22.03.2024;14:19;12,388;
22.03.2024;14:04;12,388;
22.03.2024;13:49;12,388;
22.03.2024;13:34;12,391;
22.03.2024;13:19;12,392;
22.03.2024;13:04;12,390;
22.03.2024;12:49;12,388;
22.03.2024;12:34;12,393;
22.03.2024;12:19;12,393;
22.03.2024;12:04;12,394;
22.03.2024;11:49;12,395;
22.03.2024;11:34;12,392;
22.03.2024;11:19;12,391;
22.03.2024;11:04;12,392;
22.03.2024;10:49;12,395;
22.03.2024;10:34;12,391;
22.03.2024;10:19;12,393;
22.03.2024;10:04;12,391;
22.03.2024;09:49;12,391;
22.03.2024;09:34;12,391;
22.03.2024;09:19;12,393;
22.03.2024;09:04;12,396;
22.03.2024;08:49;12,393;
22.03.2024;08:34;12,395;
22.03.2024;08:19;12,393;
22.03.2024;08:04;12,394;
22.03.2024;07:49;12,392;
22.03.2024;07:34;12,394;
22.03.2024;07:19;12,396;
22.03.2024;07:04;12,397;
22.03.2024;06:49;12,394;
22.03.2024;06:34;12,397;
22.03.2024;06:19;12,396;
22.03.2024;06:04;12,394;
22.03.2024;05:49;12,393;
22.03.2024;05:34;12,389;
22.03.2024;05:19;12,390;
22.03.2024;05:04;12,390;
22.03.2024;04:49;12,388;
22.03.2024;04:34;12,390;
22.03.2024;04:19;12,391;
22.03.2024;04:04;12,391;
22.03.2024;03:49;12,391;
22.03.2024;03:34;12,386;
22.03.2024;03:19;12,389;
22.03.2024;03:04;12,390;
22.03.2024;02:49;12,387;
22.03.2024;02:34;12,389;
22.03.2024;02:19;12,384;
22.03.2024;02:04;12,391;
22.03.2024;01:49;12,392;
22.03.2024;01:34;12,393;
22.03.2024;01:19;12,390;
22.03.2024;01:04;12,396;
22.03.2024;00:49;12,394;
22.03.2024;00:34;12,395;
22.03.2024;00:19;12,394;
22.03.2024;00:04;12,392;
21.03.2024;23:49;12,390;
21.03.2024;23:34;12,391;
21.03.2024;23:19;12,389;
21.03.2024;23:04;12,391;
21.03.2024;22:49;12,390;
21.03.2024;22:34;12,384;
21.03.2024;22:19;12,389;
21.03.2024;22:04;12,391;
21.03.2024;21:49;12,390;
21.03.2024;21:34;12,392;
21.03.2024;21:19;12,390;
21.03.2024;21:04;12,387;
21.03.2024;20:49;12,389;
21.03.2024;20:34;12,391;
21.03.2024;20:19;12,393;
21.03.2024;20:04;12,395;
21.03.2024;19:49;12,395;
21.03.2024;19:34;12,396;
21.03.2024;19:19;12,395;
21.03.2024;19:04;12,395;
21.03.2024;18:49;12,391;
21.03.2024;18:34;12,391;
21.03.2024;18:19;12,391;
21.03.2024;18:04;12,392;
21.03.2024;17:49;12,388;
21.03.2024;17:34;12,391;
21.03.2024;17:19;12,393;
21.03.2024;17:04;12,390;
21.03.2024;16:49;12,391;
21.03.2024;16:34;12,390;
21.03.2024;16:19;12,391;
21.03.2024;16:04;12,388;
21.03.2024;15:49;12,390;
21.03.2024;15:34;12,390;
21.03.2024;15:19;12,390;
21.03.2024;15:04;12,393;
21.03.2024;14:49;12,395;
21.03.2024;14:34;12,396;
21.03.2024;14:19;12,396;
21.03.2024;14:04;12,396;
21.03.2024;13:49;12,399;
21.03.2024;13:34;12,397;
21.03.2024;13:19;12,400;
21.03.2024;13:04;12,397;
21.03.2024;12:49;12,398;
21.03.2024;12:34;12,397;
21.03.2024;12:19;12,397;
21.03.2024;12:04;12,399;
21.03.2024;11:49;12,400;
21.03.2024;11:34;12,398;
21.03.2024;11:19;12,393;
21.03.2024;11:04;12,401;
21.03.2024;10:49;12,401;
21.03.2024;10:34;12,401;
21.03.2024;10:19;12,394;
21.03.2024;10:04;12,399;
21.03.2024;09:49;12,397;
21.03.2024;09:34;12,397;
21.03.2024;09:19;12,399;
21.03.2024;09:04;12,398;
21.03.2024;08:49;12,398;
21.03.2024;08:34;12,399;
21.03.2024;08:19;12,395;
21.03.2024;08:04;12,395;
21.03.2024;07:49;12,394;
21.03.2024;07:34;12,394;
21.03.2024;07:19;12,396;
21.03.2024;07:04;12,394;
21.03.2024;06:49;12,393;
21.03.2024;06:34;12,395;
21.03.2024;06:19;12,398;
21.03.2024;06:04;12,399;
21.03.2024;05:49;12,398;
21.03.2024;05:34;12,399;
21.03.2024;05:19;12,400;
21.03.2024;05:04;12,397;
21.03.2024;04:49;12,393;
21.03.2024;04:34;12,391;
21.03.2024;04:19;12,388;
21.03.2024;04:04;12,391;
21.03.2024;03:49;12,391;
21.03.2024;03:34;12,392;
21.03.2024;03:19;12,387;
21.03.2024;03:04;12,394;
21.03.2024;02:49;12,394;
21.03.2024;02:34;12,396;
21.03.2024;02:19;12,396;
21.03.2024;02:04;12,392;
21.03.2024;01:49;12,397;
21.03.2024;01:34;12,395;
21.03.2024;01:19;12,400;
21.03.2024;01:04;12,397;
21.03.2024;00:49;12,397;
21.03.2024;00:34;12,393;
21.03.2024;00:19;12,398;
21.03.2024;00:04;12,397;
20.03.2024;23:49;12,398;
20.03.2024;23:34;12,396;
20.03.2024;23:19;12,401;
20.03.2024;23:04;12,397;
20.03.2024;22:49;12,398;
20.03.2024;22:34;12,402;
20.03.2024;22:19;12,397;
20.03.2024;22:04;12,399;
20.03.2024;21:49;12,398;
20.03.2024;21:34;12,395;
20.03.2024;21:19;12,399;
20.03.2024;21:04;12,400;
20.03.2024;20:49;12,398;
20.03.2024;20:34;12,401;
20.03.2024;20:19;12,399;
20.03.2024;20:04;12,399;
20.03.2024;19:50;12,397;
20.03.2024;19:35;12,399;
20.03.2024;19:20;12,399;
20.03.2024;19:05;12,401;
20.03.2024;18:50;12,399;
20.03.2024;18:35;12,397;
20.03.2024;18:20;12,398;
20.03.2024;18:05;12,401;
20.03.2024;17:50;12,401;
20.03.2024;17:35;12,400;
20.03.2024;17:20;12,400;
20.03.2024;17:05;12,401;
20.03.2024;16:50;12,401;
20.03.2024;16:35;12,401;
20.03.2024;16:20;12,400;
20.03.2024;16:05;12,402;
20.03.2024;15:50;12,399;
20.03.2024;15:35;12,400;
20.03.2024;15:20;12,404;
20.03.2024;15:05;12,401;
20.03.2024;14:50;12,403;
20.03.2024;14:35;12,403;
20.03.2024;14:20;12,406;
20.03.2024;14:05;12,410;
20.03.2024;13:50;12,409;
20.03.2024;13:35;12,410;
20.03.2024;13:20;12,408;
20.03.2024;13:05;12,408;
20.03.2024;12:50;12,403;
20.03.2024;12:35;12,404;
20.03.2024;12:20;12,403;
20.03.2024;12:05;12,410;
20.03.2024;11:50;12,406;
20.03.2024;11:35;12,404;
20.03.2024;11:20;12,406;
20.03.2024;11:05;12,407;
20.03.2024;10:50;12,406;
20.03.2024;10:35;12,410;
20.03.2024;10:20;12,401;
20.03.2024;10:05;12,404;
20.03.2024;09:50;12,405;
20.03.2024;09:35;12,406;
20.03.2024;09:20;12,403;
20.03.2024;09:05;12,403;
20.03.2024;08:50;12,401;
20.03.2024;08:35;12,410;
20.03.2024;08:20;12,406;
20.03.2024;08:05;12,405;
20.03.2024;07:50;12,407;
20.03.2024;07:35;12,408;
20.03.2024;07:20;12,413;
20.03.2024;07:05;12,411;
20.03.2024;06:50;12,413;
20.03.2024;06:35;12,411;
20.03.2024;06:20;12,411;
20.03.2024;06:05;12,405;
20.03.2024;05:50;12,403;
20.03.2024;05:35;12,404;
20.03.2024;05:20;12,407;
20.03.2024;05:05;12,404;
20.03.2024;04:50;12,404;
20.03.2024;04:35;12,401;
20.03.2024;04:20;12,406;
20.03.2024;04:05;12,406;
20.03.2024;03:50;12,405;
20.03.2024;03:35;12,405;
20.03.2024;03:20;12,405;
20.03.2024;03:05;12,406;
20.03.2024;02:50;12,402;
20.03.2024;02:35;12,406;
20.03.2024;02:20;12,409;
20.03.2024;02:05;12,405;
20.03.2024;01:50;12,406;
20.03.2024;01:35;12,407;
20.03.2024;01:20;12,406;
20.03.2024;01:05;12,406;
20.03.2024;00:50;12,409;
20.03.2024;00:35;12,406;
20.03.2024;00:20;12,407;
20.03.2024;00:05;12,407;
19.03.2024;23:50;12,403;
19.03.2024;23:35;12,407;
19.03.2024;23:20;12,403;
19.03.2024;23:05;12,405;
19.03.2024;22:50;12,406;
19.03.2024;22:35;12,406;
19.03.2024;22:20;12,404;
19.03.2024;22:05;12,404;